Wautoma, WI

2:08 PM CDT on April 26, 2017 (GMT -0500)
Wautoma

Weather History for KY50 - January, 2014

Change the Weather History Date:

Friday, January 24, 2014

  Actual Average (KPCZ) Record (KPCZ)
Temperature  
Mean Temperature 8 °F -  
Max Temperature 28 °F 28 °F 46 °F (1989)
Min Temperature -11 °F 10 °F -20 °F (1952)
Degree Days  
Heating Degree Days 56    
Moisture  
Dew Point -    
Average Humidity    
Maximum Humidity    
Minimum Humidity    
Precipitation  
Precipitation 0.00 in - - ()
Sea Level Pressure  
Sea Level Pressure 29.68 in    
Wind  
Wind Speed 11 mph (SW)    
Max Wind Speed 20 mph    
Max Gust Speed 26 mph    
Visibility 7 miles    
Events Snow    
Averages and records for this station are not official NWS values.
T = Trace of Precipitation, MM = Missing Value Source: NWS Daily Summary

Daily Weather History Graph

Daily Weather History Graph

Search for Another Location

Airport or City:

Trip Planner

Search our weather history database for the weather conditions in past years. The results will help you decide how hot, cold, wet, or windy it might be!

Date:

Astronomy

Jan. 24, 2014 Rise Set
Actual Time 7:22 AM CST 4:56 PM CST
Civil Twilight 6:51 AM CST 5:27 PM CST
Nautical Twilight 6:16 AM CST 6:03 PM CST
Astronomical Twilight 5:41 AM CST 6:37 PM CST
Moon 12:46 AM CST (1/24) 11:17 AM CST (1/24)
Length of Visible Light 10h 36m
Length of Day
9h 34m
Last Quarter, 44% of the Moon is Illuminated
Jan 24
Last Quarter
Jan 30
New
Feb 6
First Quarter
Feb 14
Full
Feb 22
Last Quarter

Hourly Weather History & Observations

Time (CST) Temp. Windchill Dew Point Humidity Pressure Visibility Wind Dir Wind Speed Gust Speed Precip Events Conditions
12:56 AM -11.9 °F -27.3 °F - N/A% 30.40 in 10.0 mi SW 6.9 mph - N/A   Clear
1:56 AM -11.9 °F -25.7 °F - N/A% 30.35 in 10.0 mi SSW 5.8 mph - N/A   Clear
2:56 AM -9.9 °F -24.9 °F - N/A% 30.30 in 10.0 mi SSW 6.9 mph - N/A   Clear
3:56 AM -6.9 °F -22.5 °F - N/A% 30.22 in 10.0 mi South 8.1 mph - N/A   Clear
4:56 AM -2.9 °F -18.8 °F - N/A% 30.13 in 10.0 mi South 9.2 mph - N/A   Scattered Clouds
5:56 AM 1.4 °F -15.3 °F - N/A% 29.98 in 10.0 mi SSW 11.5 mph - N/A   Scattered Clouds
6:56 AM 5.0 °F -13.6 °F - N/A% 29.96 in 10.0 mi SSW 16.1 mph - N/A   Scattered Clouds
7:56 AM 8.1 °F -9.6 °F - N/A% 29.93 in 10.0 mi SW 16.1 mph 19.6 mph N/A   Overcast
8:17 AM 8.6 °F -10.5 °F - N/A% 29.85 in 2.5 mi SW 19.6 mph 25.3 mph 0.00 in Snow Light Snow
8:25 AM 8.6 °F -7.7 °F - N/A% 29.85 in 5.0 mi SW 13.8 mph 25.3 mph 0.00 in Snow Light Snow
8:40 AM 8.6 °F -9.5 °F - N/A% 29.84 in 2.5 mi SW 17.3 mph 25.3 mph 0.00 in Snow Light Snow
8:48 AM 8.6 °F -9.5 °F - N/A% 29.83 in 1.8 mi SW 17.3 mph 25.3 mph 0.00 in Snow Light Snow
8:56 AM 8.6 °F -10.0 °F - N/A% 29.82 in 2.0 mi SW 18.4 mph 23.0 mph N/A Snow Light Snow
9:04 AM 8.6 °F -9.5 °F - N/A% 29.82 in 5.0 mi SW 17.3 mph 23.0 mph 0.00 in Snow Light Snow
9:56 AM 11.1 °F -6.2 °F - N/A% 29.85 in 10.0 mi SW 17.3 mph 24.2 mph 0.00 in   Mostly Cloudy
10:56 AM 14.0 °F -2.5 °F - N/A% 29.80 in 10.0 mi SW 17.3 mph 21.9 mph 0.00 in   Overcast
11:56 AM 15.1 °F -0.1 °F - N/A% 29.75 in 10.0 mi SW 15.0 mph 24.2 mph N/A   Mostly Cloudy
12:56 PM 17.1 °F 2.0 °F - N/A% 29.69 in 10.0 mi SW 16.1 mph - N/A   Overcast
1:49 PM 17.6 °F 3.7 °F - N/A% 29.59 in 10.0 mi SW 13.8 mph - N/A   Overcast
1:56 PM 18.1 °F 4.4 °F - N/A% 29.64 in 10.0 mi SW 13.8 mph - N/A   Overcast
2:56 PM 19.0 °F 4.5 °F - N/A% 29.61 in 10.0 mi SSW 16.1 mph 20.7 mph N/A   Overcast
3:56 PM 20.1 °F 8.1 °F - N/A% 29.59 in 10.0 mi SW 11.5 mph - N/A   Overcast
4:56 PM 21.0 °F 8.6 °F - N/A% 29.55 in 10.0 mi SW 12.7 mph - N/A   Overcast
5:56 PM 22.1 °F 10.0 °F - N/A% 29.51 in 10.0 mi SW 12.7 mph - 0.00 in   Overcast
6:18 PM 21.2 °F 9.5 °F - N/A% 29.45 in 2.5 mi SW 11.5 mph - 0.00 in Snow Light Snow
6:39 PM 21.2 °F 10.9 °F - N/A% 29.45 in 1.8 mi SW 9.2 mph - 0.00 in Snow Light Snow
6:48 PM 21.2 °F 10.1 °F - N/A% 29.44 in 2.0 mi SW 10.4 mph - 0.00 in Snow Light Snow
6:56 PM 22.1 °F 11.3 °F - N/A% 29.48 in 2.5 mi SW 10.4 mph - 0.00 in Snow Light Snow
7:01 PM 21.2 °F 11.7 °F - N/A% 29.44 in 3.0 mi SW 8.1 mph - 0.00 in Snow Light Snow
7:19 PM 21.2 °F 10.1 °F - N/A% 29.43 in 2.5 mi SW 10.4 mph - 0.00 in   Overcast
7:28 PM 23.0 °F 13.1 °F - N/A% 29.42 in 2.5 mi SW 9.2 mph - 0.00 in   Overcast
7:36 PM 23.0 °F 13.1 °F - N/A% 29.42 in 3.0 mi WSW 9.2 mph - 0.00 in   Overcast
7:49 PM 23.0 °F 13.1 °F - N/A% 29.41 in 8.0 mi SSW 9.2 mph - 0.00 in Snow Light Snow
7:56 PM 23.0 °F 12.4 °F - N/A% 29.44 in 3.0 mi SW 10.4 mph - 0.00 in Snow Light Snow
8:12 PM 24.8 °F 14.0 °F - N/A% 29.40 in 2.5 mi WSW 11.5 mph - 0.00 in Snow Light Snow
8:19 PM 24.8 °F 13.4 °F - N/A% 29.39 in 2.0 mi WSW 12.7 mph - 0.00 in Snow Light Snow
8:27 PM 24.8 °F 13.4 °F - N/A% 29.39 in 3.0 mi WSW 12.7 mph - 0.00 in Snow Light Snow
8:56 PM 24.8 °F 12.9 °F - N/A% 29.38 in 10.0 mi WSW 13.8 mph - N/A   Overcast
9:56 PM 27.1 °F 18.2 °F - N/A% 29.40 in 4.0 mi West 9.2 mph - 0.00 in Snow Light Snow
10:56 PM 28.0 °F 18.1 °F - N/A% 29.39 in 10.0 mi WNW 11.5 mph - 0.00 in   Overcast
11:56 PM 28.4 °F 18.5 °F - N/A% 29.36 in 10.0 mi NW 11.5 mph 26.5 mph N/A   Overcast